Regional Weather Roundup
Issued by NWS

Home | Current Version | Previous Version | Graphics & Text | Print | Product List | Glossary On
Versions: 1 2 3 4 5 6 7 8 9 10 11 12 13 14 15 16 17 18 19 20 21 22 23 24 25 26 27
000
ASUS45 KCYS 180410
RWRWY

WYOMING REGIONAL WEATHER ROUNDUP
NATIONAL WEATHER SERVICE CHEYENNE WY
900 PM MST SAT FEB 17 2018

NOTE:  "FAIR" INDICATES FEW OR NO CLOUDS BELOW 12,000 FEET
WITH NO SIGNIFICANT WEATHER AND/OR OBSTRUCTIONS TO VISIBILITY.

WYZ001-180500-
YELLOWSTONE NATIONAL PARK

CITY           SKY/WX    TMP DP  RH WIND       PRES   REMARKS
LK YELLOWSTONE   N/A     24  21  88 VRB5      29.55F WCI  18
W YELLOWSTONE  NOT AVBL

$$
WYZ002>013-054>058-071-098>099-180500-
NORTHERN WYOMING

CITY           SKY/WX    TMP DP  RH WIND       PRES   REMARKS
JACKSON        FLURRIES  33  22  63 S17       29.67F WCI  22
CODY           FAIR      39  24  55 SW25G38   29.43F WCI  28
GREYBULL       FAIR      31  23  72 SE5       29.51F WCI  26
WORLAND        FAIR      37  22  54 VRB3      29.50F
SHERIDAN       FAIR      23  20  88 VRB3      29.46F
BUFFALO        FAIR      43  20  39 SW17G28   29.43F
GILLETTE       FAIR      41  21  44 SW30G38   29.48F
HULETT         MOCLDY    25  19  80 CALM      29.54F
NEWCASTLE      FAIR      34  19  55 SE21      29.61F WCI  22

$$
WYZ014>020-022>026-101>103-180500-
CENTRAL WYOMING

CITY           SKY/WX    TMP DP  RH WIND       PRES   REMARKS
BIG PINEY      MOCLDY    32  12  43 SW14      29.74F WCI  22
PINEDALE       CLOUDY    32  16  51 SE16      29.75F WCI  21
DUBOIS           N/A    N/A N/A N/A MISG        N/A
LANDER         CLOUDY    47  18  31 SW13G41   29.53F
RIVERTON       FAIR      39  16  39 SW10      29.56F WCI  32
CASPER         FAIR      41  11  29 SW24G37   29.62F
DOUGLAS        FAIR      45  11  25 W18G32    29.61F

$$
WYZ021-027>030-104>119-180500-
SOUTHERN WYOMING

CITY           SKY/WX    TMP DP  RH WIND       PRES   REMARKS
EVANSTON       FAIR      37  12  35 SW18      29.81F WCI  27
FORT BRIDGER   FAIR      40  10  29 SW20G30   29.82F WCI  30
ROCK SPRINGS   FAIR      39   9  29 SW14      29.80F WCI  31
DIXON          FAIR      36  12  37 S15G21    29.92F WCI  27
RAWLINS        FAIR      36  11  35 SW28G35   29.79F WCI  23
SARATOGA       MOCLDY    34  12  40 S9        29.87F WCI  26
LARAMIE        FAIR      33   7  33 SW22      29.80F WCI  21
CHEYENNE       FAIR      32  11  41 SW5       29.80F WCI  27
TORRINGTON     FAIR      40  18  41 S16       29.71F WCI  31
PINE BLUFFS    FAIR      36  16  44 MISG      29.81F

$$




USA.gov is the U.S. government's official web portal to all federal, state and local government web resources and services.